Location: Rounton
(54.4000°N, 1.3500°W)
Time: 04:50:13
(UTC+00:00)

S-56A Canister/Altair - Pass Details

Date: 03 December 2021
Orbit: 633 x 2499 km, 38.9° (Epoch: 17 January)

Event Time Altitude Azimuth Distance (km) Brightness Sun altitude
Rises 03:49:20 0° 252° (WSW) 3,935 - -36.0°
Reaches altitude 10° 03:53:43 10° 230° (SW) 2,617 - -35.4°
Maximum altitude 03:56:43 14° 200° (SSW) 2,118 - -34.9°
Drops below altitude 10° 03:59:23 10° 168° (SSE) 2,235 - -34.6°
Exits shadow 04:01:05 - 152° (SSE) 2,577 10.4 -34.3°
Sets 04:02:37 0° 142° (SE) 3,002 10.9 -34.1°
